Hourly Data Report for October 09, 2017

All times are specified in Local Standard Time (LST). Add 1 hour to adjust for Daylight Saving Time where and when it is observed.

KITCHENER/WATERLOO
ONTARIO

43°27'39.000" N
80°22'43.000" W
321.60 m
6144239
71368
YKF

Download Data

Hourly Data (October 2017)
Hourly Data Report for October 9, 2017
Temp Definition
°C
Dew Point Temp Definition
°C
Rel Hum Definition
%
Wind Dir Definition
10's deg

Wind Spd Definition
km/h
Visibility Definition
km
Stn Press Definition
kPa
Hmdx Definition


Wind Chill Definition


Weather Definition


TIME
00:00 Legend Double Dagger 14.5 13.9 96 11 8 16.1 97.37     LegendNANA
01:00 Legend Double Dagger 15.4 14.3 93   0 16.1 97.36     Rain
02:00 Legend Double Dagger 15.5 14.9 96 8 11 4.8 97.33     Moderate Rain,Fog
03:00 Legend Double Dagger 15.2 14.9 98 6 11 4.8 97.23     Rain,Fog
04:00 Legend Double Dagger 15.2 14.9 98 6 13 6.4 97.19     Rain,Fog
05:00 Legend Double Dagger 14.9 14.4 97 5 9 9.7 97.17     Rain,Fog
06:00 Legend Double Dagger 15.3 14.8 97 4 9 16.1 97.14     Rain
07:00 Legend Double Dagger 15.1 14.6 97 7 15 16.1 97.14     LegendNANA
08:00 Legend Double Dagger 15.5 14.9 96 5 11 16.1 97.18     LegendNANA
09:00 Legend Double Dagger 16.2 14.9 92 4 9 16.1 97.21     LegendNANA
10:00 Legend Double Dagger 17.3 14.3 82 1 13 16.1 97.27     LegendNANA
11:00 Legend Double Dagger 18.8 14.7 77 36 9 16.1 97.30     LegendNANA
12:00 Legend Double Dagger 20.8 15.1 70 8 5 16.1 97.32 25   LegendNANA
13:00 Legend Double Dagger 22.0 15.2 65 LegendMM 4 16.1 97.33 26   LegendNANA
14:00 Legend Double Dagger 21.9 14.7 63 28 8 16.1 97.34 26   LegendNANA
15:00 Legend Double Dagger 22.2 15.0 63 26 13 16.1 97.40 26   LegendNANA
16:00 Legend Double Dagger 22.3 14.2 60 29 15 16.1 97.47 26   LegendNANA
17:00 Legend Double Dagger 21.3 14.6 65 29 13 16.1 97.53 25   LegendNANA
18:00 Legend Double Dagger 18.6 14.1 75 30 9 16.1 97.60     LegendNANA
19:00 Legend Double Dagger 17.0 14.4 84 29 11 16.1 97.68     LegendNANA
20:00 Legend Double Dagger 15.7 13.8 88 30 8 16.1 97.74     LegendNANA
21:00 Legend Double Dagger 13.3 12.6 96 31 9 16.1 97.81     LegendNANA
22:00 Legend Double Dagger 13.1 13.0 99 26 4 8.1 97.89     Fog
23:00 Legend Double Dagger 11.0 10.9 99 10 4 0.2 97.92     Fog

Notes on Data Quality.

Legend

  • E = Estimated
  • M = Missing
  • NA = Not Available
  • ‡ = Partner data that is not subject to review by the National Climate Archives
Date modified: